Temperature
18 17 17 16 16 15 15 14 14 14 13 13 13 13 12 12 12 12 12 11 11 11 11 11 11 11 11 11 11 11 11 11 11 11 12 12 12 13 13 13 13 13 14
18 17 17 16 16 15 15 15 14 14 13 13 13 13 12 12 12 12 12 11 11 11 11 11 11 11 11 11 11 11 11 11 11 11 11 12 12 12 12 12 13 13 13
18 17 17 16 16 16 15 15 14 14 13 13 13 13 12 12 12 12 12 11 11 11 11 11 11 11 11 10 10 10 10 10 10 10 11 11 11 12 12 12 12 12 13
18 17 17 17 16 16 15 15 14 14 14 13 13 13 12 12 12 12 11 11 11 11 11 11 11 10 10 10 10 10 10 10 10 10 10 10 11 11 11 11 12 12 12
18 18 17 17 16 16 15 15 14 14 14 13 13 13 12 12 12 12 11 11 11 11 11 11 10 10 10 10 10 10 10 10 10 10 10 10 10 11 11 11 11 11 12
18 18 17 17 16 16 15 15 14 14 14 13 13 13 12 12 12 12 11 11 11 11 11 11 10 10 10 10 10 10 9 9 9 9 10 10 10 10 10 10 10 11 11
18 18 17 17 16 16 15 15 15 14 14 13 13 13 13 12 12 12 11 11 11 11 11 11 10 10 10 10 10 10 9 9 9 9 9 10 10 10 10 10 10 10 10
18 18 17 17 17 16 15 15 15 14 14 13 13 13 13 13 12 12 12 11 11 11 11 10 10 10 10 10 9 9 10 10 9 9 9 9 9 10 9 9 9 10 10
18 18 17 17 17 16 15 15 15 14 14 13 13 13 13 13 12 12 12 11 11 11 11 10 10 10 10 10 9 9 9 9 9 9 9 9 9 9 9 9 9 9 9
19 18 17 17 16 16 15 15 14 14 14 14 13 13 13 13 12 12 12 11 11 11 11 11 10 10 10 9 9 9 9 9 9 9 9 9 9 9 9 9 9 9 9
18 18 17 16 16 16 15 15 14 14 14 13 13 13 13 13 12 12 12 11 11 11 11 11 10 10 10 9 9 9 9 9 9 9 9 9 9 9 9 9 9 9 9
18 17 17 16 16 15 15 14 14 14 13 13 13 13 13 13 12 12 12 12 11 11 11 11 10 10 10 9 9 9 9 8 8 8 8 8 9 9 9 9 9 9 9
17 17 16 16 15 15 14 14 14 14 13 13 13 13 13 13 12 12 12 12 11 11 11 10 10 10 9 9 9 9 8 8 8 8 8 8 9 8 8 8 8 9 9
16 16 16 15 15 14 14 14 13 13 13 13 13 13 13 13 12 12 12 12 11 11 11 10 10 10 9 9 9 9 8 8 8 8 8 8 8 8 8 8 8 8 8
15 15 15 14 14 14 14 13 13 13 13 13 13 12 12 12 12 12 12 11 11 11 10 10 10 9 9 9 9 9 8 8 8 8 8 8 8 8 8 8 8 8 8
15 14 14 14 13 13 13 13 13 13 13 13 12 12 12 12 12 12 12 11 11 11 10 10 10 9 9 9 9 9 8 8 8 8 8 8 8 8 8 8 8 8 8
14 13 13 13 13 12 12 12 12 12 12 12 12 12 12 12 12 12 12 11 11 10 10 10 10 9 9 9 9 8 8 8 8 8 8 8 8 8 8 8 8 8 8
13 12 12 12 12 12 12 12 12 12 12 12 12 12 12 12 12 12 11 11 11 10 10 10 10 9 9 9 9 8 8 8 8 8 8 8 8 8 8 8 8 8 8
12 12 11 11 11 11 11 11 11 11 11 11 11 11 11 11 11 11 11 11 11 10 10 10 9 9 9 9 8 8 8 8 8 8 8 8 8 7 8 8 8 8 8
11 11 11 11 11 11 11 11 11 11 11 11 11 11 11 11 11 11 11 11 10 10 10 10 9 9 9 8 8 8 8 8 8 8 8 8 8 8 8 8 8 8 8
10 10 10 10 10 10 10 10 10 10 10 10 10 10 10 10 10 10 10 10 10 10 9 9 9 9 9 8 8 8 8 8 8 8 8 8 8 8 8 8 8 8 8
10 10 10 9 9 9 9 9 9 9 10 10 10 10 10 10 10 10 10 10 10 9 9 9 9 9 9 8 8 8 8 8 8 8 8 8 8 8 8 8 8 8 8
10 9 9 9 9 9 9 9 9 9 9 9 9 9 10 10 10 10 10 10 9 9 9 9 9 9 8 8 8 8 8 8 8 8 8 8 8 8 8 8 8 8 8
9 9 9 8 8 8 8 8 8 8 9 8 9 9 9 9 9 9 9 9 9 9 9 9 8 8 8 8 8 8 8 8 8 8 8 8 8 8 8 8 8 8 8
9 9 8 8 8 8 8 8 8 8 8 8 8 8 9 9 9 9 9 9 9 9 8 8 8 8 8 8 8 8 8 8 8 8 8 8 8 8 8 8 8 8 8
8 8 8 8 7 7 7 7 7 7 7 7 8 8 8 8 8 8 8 8 8 8 8 8 8 8 8 8 8 8 8 8 8 8 8 8 8 8 8 8 8 8 8
Wind_Speed
9 8 7 7 6 6 5 5 4 4 4 4 4 3 4 4 4 3 4 5 5 5 5 5 6 5 4 4 4 4 4 4 5 5 4 4 4 6 6 8 9 9 11
9 8 8 7 6 6 5 5 5 5 5 5 5 4 5 5 5 5 6 5 5 6 6 6 7 6 5 5 4 5 5 5 5 6 4 4 5 6 6 6 6 8 9
8 9 8 8 7 7 7 6 6 6 6 5 5 6 6 6 6 6 6 6 6 7 7 7 7 6 7 6 6 6 5 6 5 5 5 4 4 4 4 5 5 4 7
9 9 9 9 9 8 8 7 7 7 6 7 6 7 7 7 7 7 6 7 7 7 7 7 7 7 8 7 6 7 6 6 5 4 5 4 4 4 3 4 5 4 4
9 9 9 9 8 7 7 7 7 7 7 7 6 7 7 6 7 7 7 7 7 7 7 7 7 9 11 9 7 7 6 5 5 5 5 4 4 4 4 3 4 4 4
10 10 9 8 8 8 8 7 7 6 6 6 6 7 7 7 9 10 8 7 7 7 8 8 8 9 11 12 13 12 10 8 8 6 6 6 7 6 4 4 3 3 4
9 8 8 8 8 8 7 7 7 7 6 6 7 7 8 9 12 13 13 8 8 8 8 8 8 9 9 8 10 12 11 14 14 9 9 9 8 7 6 5 5 5 5
8 8 7 7 8 7 6 7 7 6 6 7 7 8 8 10 13 14 14 9 8 9 9 9 9 10 10 9 9 9 9 9 10 9 9 10 10 9 8 8 7 6 5
8 8 7 8 7 7 7 7 6 5 6 7 7 8 8 10 13 14 13 6 7 10 10 9 9 10 13 13 9 9 10 10 11 14 14 13 14 14 9 5 4 4 5
10 9 8 7 8 7 8 7 5 6 7 7 8 8 9 10 13 14 13 6 8 8 8 8 12 12 12 11 8 8 10 10 8 8 8 8 9 10 12 9 8 7 5
8 7 7 7 7 7 6 5 6 6 6 7 8 8 9 11 13 15 13 7 8 8 7 7 8 12 13 13 10 8 12 10 7 7 7 7 6 6 7 8 8 8 8
6 6 6 6 6 5 6 6 6 6 7 7 7 8 8 9 11 12 14 14 12 8 8 8 8 12 13 13 9 11 14 10 6 6 6 7 7 7 7 8 9 9 9
5 5 5 5 5 4 5 6 6 5 6 7 6 8 9 7 8 14 15 15 15 10 9 11 12 13 12 10 12 14 11 7 6 7 8 9 8 8 6 5 6 7 8
4 4 3 4 5 5 5 5 6 6 7 7 7 8 8 7 7 7 6 7 9 9 8 9 11 12 11 11 11 9 7 7 8 9 8 8 6 5 6 6 5 5 5
2 2 3 4 5 6 6 7 8 8 9 9 8 8 8 8 11 12 8 7 6 6 4 3 4 5 6 6 7 7 7 7 8 9 8 8 7 7 7 6 6 6 6
2 3 4 4 5 5 6 7 10 12 15 16 16 13 10 14 15 14 15 14 12 8 5 5 6 7 8 8 8 8 7 8 9 9 9 9 8 8 7 6 6 6 8
2 4 4 4 5 6 6 6 8 10 12 14 16 16 16 16 16 15 14 12 10 9 6 7 8 8 8 8 8 8 8 8 8 8 9 9 8 8 7 7 6 7 7
3 4 5 5 5 6 7 7 7 8 8 8 10 14 15 16 16 15 11 6 5 6 7 9 9 9 9 8 8 8 8 7 7 7 8 8 8 8 8 7 7 8 8
4 4 5 5 6 6 7 7 7 8 8 8 7 8 12 12 12 11 9 7 8 8 8 9 9 9 9 8 8 8 8 7 7 7 7 8 8 8 8 8 7 10 9
5 8 8 6 6 6 7 7 7 7 7 7 7 7 6 4 5 5 7 8 8 9 9 9 9 9 8 8 7 7 7 7 7 7 7 7 7 7 8 8 8 7 7
5 7 10 8 7 7 7 7 7 7 7 7 8 9 9 6 7 8 7 7 8 9 9 8 8 8 8 7 7 7 8 7 7 7 7 7 7 7 7 7 7 7 6
5 6 6 7 7 7 7 7 7 8 8 9 8 9 12 8 7 7 7 7 8 8 7 7 7 7 7 7 7 7 7 7 7 6 6 6 6 7 6 6 7 6 6
5 6 7 7 7 9 8 7 7 7 7 7 8 8 8 7 7 7 7 7 6 6 6 6 6 6 6 6 6 6 7 7 7 6 6 6 6 6 6 6 7 7 7
5 6 7 7 7 7 7 8 8 7 7 7 7 7 6 6 6 7 7 6 5 5 5 5 6 8 8 6 5 5 5 6 5 5 7 7 6 6 5 6 6 7 7
5 6 6 6 6 7 7 8 8 8 7 7 7 6 6 6 6 6 5 4 5 5 6 5 5 5 6 6 5 4 4 5 5 3 4 5 6 6 6 6 5 5 6
5 6 6 6 6 6 7 8 8 8 7 7 7 6 6 6 5 5 4 3 4 4 5 4 5 5 5 4 4 3 3 3 3 3 2 3 4 5 5 5 6 5 5
Wind_Direction
175 172 167 174 174 171 178 195 198 199 201 207 220 233 250 258 257 246 251 255 253 262 266 258 259 257 257 259 251 242 231 208 243 269 260 272 278 283 292 287 278 268 266
178 173 176 179 177 181 196 205 199 204 214 219 223 232 245 249 247 242 254 257 247 252 257 257 260 261 256 255 250 249 246 230 226 261 275 274 268 271 272 277 275 273 261
173 172 177 185 188 198 208 212 211 213 221 226 225 231 240 244 243 242 242 249 247 247 247 246 253 255 259 257 253 251 251 255 229 237 261 264 270 276 284 284 277 270 265
172 174 185 195 200 206 211 214 217 217 221 228 232 235 239 240 241 245 244 246 249 252 250 247 248 244 247 252 256 250 249 253 248 244 254 263 267 276 271 276 292 284 275
173 184 199 203 203 205 211 217 220 221 226 228 233 241 244 242 242 238 238 242 242 249 255 254 253 252 250 248 253 246 241 240 242 243 251 260 265 272 263 257 267 287 284
180 194 198 198 201 208 214 218 222 228 233 230 232 240 246 247 246 242 230 233 235 241 252 258 262 263 263 262 262 257 239 234 233 234 240 242 250 247 248 248 253 276 285
186 193 196 197 204 213 217 216 222 226 227 231 239 241 246 251 254 251 244 232 233 238 241 249 262 264 263 261 268 271 263 250 234 224 230 237 240 236 234 247 242 236 243
187 194 198 199 209 215 215 221 227 225 227 235 241 243 247 255 255 253 249 238 235 239 239 240 246 258 263 256 259 265 260 258 247 234 228 236 237 234 226 233 239 246 256
194 200 201 199 206 210 217 228 230 228 237 239 242 243 247 258 258 256 250 233 238 246 246 244 241 250 258 258 253 256 263 266 261 247 235 238 241 241 228 225 232 232 257
203 204 202 197 200 209 220 229 230 229 240 245 250 247 245 253 259 257 247 225 239 251 254 250 247 248 256 257 242 243 255 261 261 265 256 255 252 252 241 221 217 222 230
201 196 198 201 207 214 221 228 233 239 248 251 256 259 254 252 259 259 250 220 230 243 250 253 248 248 250 252 244 233 244 250 253 248 252 256 255 250 244 228 217 214 218
183 190 202 209 217 220 222 236 239 240 250 258 262 270 267 260 255 257 251 234 225 228 243 248 247 248 251 255 253 244 249 255 248 246 250 252 250 249 245 235 226 222 222
180 200 214 218 225 226 226 240 248 245 247 257 258 264 271 267 261 255 252 244 234 228 242 246 251 254 257 259 255 253 252 242 232 240 246 248 243 242 244 244 242 232 232
186 214 222 227 244 249 246 243 245 248 250 253 254 258 263 265 260 255 246 244 242 238 246 256 259 259 254 253 259 260 242 229 227 237 243 246 243 238 239 234 237 229 230
205 247 255 252 256 261 259 252 248 246 243 241 246 245 248 259 256 237 226 230 225 227 227 248 254 256 255 255 255 252 244 235 234 237 239 243 241 240 242 231 226 219 221
239 258 257 258 262 261 267 280 267 258 263 256 249 246 246 246 258 252 239 235 230 212 196 237 249 250 252 254 256 258 249 239 236 234 234 235 236 236 239 232 220 218 225
280 277 275 274 274 273 270 270 283 288 278 272 265 258 248 254 258 254 246 238 226 193 210 241 249 251 251 250 250 251 252 245 234 231 233 233 232 232 230 229 225 224 227
318 298 291 280 280 279 275 271 269 273 283 286 278 265 261 258 257 252 240 206 222 210 229 242 248 249 248 248 250 250 250 247 237 233 232 231 227 226 228 229 225 223 224
322 308 298 289 285 282 279 276 274 271 270 274 282 283 270 264 258 248 204 203 228 235 234 240 246 247 247 246 248 248 245 243 238 230 230 229 224 220 226 227 226 225 219
314 309 311 299 292 292 288 284 281 278 275 273 271 270 274 263 255 240 212 220 233 243 243 243 246 245 245 244 246 248 246 242 238 234 232 229 222 217 223 226 222 217 216
307 308 312 311 299 292 290 287 285 281 279 277 272 268 263 256 251 248 239 231 232 238 242 244 244 245 244 242 242 243 243 245 239 233 231 228 221 219 219 219 217 214 211
297 297 300 298 297 297 295 291 290 286 282 280 279 280 274 260 251 248 246 246 238 233 234 236 242 242 240 239 238 238 241 243 240 234 230 226 222 220 219 216 213 210 208
297 300 300 295 295 298 300 297 295 290 288 286 285 283 278 264 256 252 249 246 241 239 235 231 239 247 244 242 240 235 236 238 236 227 222 223 222 218 213 213 212 209 210
296 298 298 298 300 300 300 302 301 296 293 290 289 288 284 275 267 263 259 252 246 245 241 236 239 246 248 248 247 239 238 239 232 228 221 220 220 216 210 215 217 215 211
293 295 298 299 302 303 304 307 305 302 298 294 294 296 297 289 276 273 270 262 257 254 255 249 243 246 250 247 248 248 240 239 239 232 227 220 217 212 206 209 214 215 208
292 296 298 301 304 304 305 305 302 300 298 298 297 295 299 297 288 280 278 281 279 269 264 256 240 237 243 245 248 243 238 251 255 249 234 220 213 210 202 206 211 213 203
Height
1528 1529 1529 1529 1529 1528 1528 1527 1527 1526 1526 1525 1525 1524 1523 1522 1522 1521 1520 1520 1519 1518 1518 1517 1516 1516 1515 1515 1514 1514 1514 1513 1511 1510 1510 1510 1510 1510 1510 1510 1510 1510 1510
1526 1526 1527 1527 1526 1526 1525 1525 1524 1524 1523 1523 1522 1521 1520 1519 1518 1518 1517 1516 1515 1514 1514 1513 1512 1512 1511 1510 1510 1509 1508 1508 1507 1505 1505 1505 1505 1505 1505 1504 1505 1504 1504
1523 1523 1524 1524 1523 1523 1523 1522 1522 1521 1520 1520 1519 1518 1517 1516 1515 1514 1513 1512 1511 1510 1510 1509 1508 1507 1506 1505 1504 1504 1503 1503 1502 1501 1499 1500 1499 1500 1499 1499 1499 1499 1499
1519 1520 1520 1520 1520 1520 1520 1519 1518 1518 1517 1516 1515 1514 1513 1512 1511 1510 1509 1508 1507 1506 1505 1504 1503 1502 1501 1500 1499 1498 1498 1497 1496 1495 1494 1494 1494 1494 1494 1493 1493 1493 1493
1515 1516 1516 1517 1517 1517 1516 1516 1515 1514 1513 1512 1511 1510 1509 1508 1507 1506 1504 1503 1502 1501 1500 1499 1498 1497 1495 1494 1493 1492 1492 1491 1491 1490 1489 1489 1489 1489 1489 1488 1488 1487 1487
1512 1512 1513 1513 1513 1513 1513 1512 1511 1510 1509 1508 1507 1506 1505 1504 1502 1501 1500 1499 1497 1496 1495 1494 1493 1491 1490 1489 1488 1487 1486 1485 1485 1484 1484 1483 1483 1483 1483 1483 1483 1482 1482
1508 1508 1509 1509 1509 1509 1509 1508 1507 1506 1505 1504 1503 1502 1500 1499 1498 1496 1495 1494 1492 1491 1489 1488 1487 1485 1484 1482 1481 1480 1480 1479 1479 1479 1477 1477 1477 1478 1478 1477 1477 1477 1477
1504 1504 1505 1505 1505 1505 1505 1504 1503 1502 1501 1500 1498 1497 1495 1494 1493 1492 1490 1488 1487 1485 1484 1482 1481 1479 1478 1477 1475 1474 1473 1473 1473 1472 1471 1471 1471 1472 1472 1472 1471 1471 1471
1499 1500 1501 1501 1501 1501 1500 1500 1499 1498 1496 1495 1494 1492 1491 1489 1488 1487 1485 1483 1481 1480 1478 1477 1475 1473 1472 1471 1469 1467 1466 1466 1466 1465 1465 1465 1465 1465 1465 1465 1465 1465 1464
1495 1496 1497 1497 1497 1496 1496 1495 1494 1493 1492 1490 1488 1487 1485 1484 1483 1481 1480 1477 1475 1474 1472 1470 1469 1467 1465 1464 1463 1461 1460 1459 1459 1458 1458 1458 1458 1458 1458 1459 1459 1459 1459
1492 1492 1493 1493 1492 1492 1491 1490 1489 1488 1487 1485 1483 1482 1480 1479 1477 1476 1474 1472 1469 1467 1465 1464 1462 1461 1459 1458 1456 1455 1454 1453 1452 1451 1450 1450 1450 1450 1451 1451 1452 1452 1453
1488 1488 1488 1488 1488 1487 1486 1485 1484 1483 1481 1479 1477 1476 1475 1473 1471 1469 1468 1466 1464 1461 1459 1457 1455 1454 1452 1451 1449 1448 1447 1446 1445 1444 1443 1442 1442 1442 1443 1444 1445 1445 1446
1484 1484 1484 1484 1483 1482 1481 1480 1479 1477 1475 1473 1472 1470 1468 1467 1465 1463 1461 1459 1457 1455 1452 1450 1449 1447 1445 1444 1442 1441 1440 1439 1437 1436 1435 1435 1435 1435 1436 1437 1437 1438 1439
1480 1480 1480 1480 1479 1478 1476 1475 1473 1471 1469 1467 1465 1463 1461 1460 1458 1456 1454 1453 1451 1448 1446 1444 1442 1440 1438 1436 1435 1434 1433 1431 1430 1429 1428 1428 1428 1428 1429 1429 1430 1431 1432
1477 1477 1476 1475 1474 1472 1471 1469 1467 1465 1464 1462 1459 1457 1455 1453 1451 1450 1448 1446 1444 1442 1439 1437 1435 1433 1431 1429 1428 1426 1425 1424 1422 1421 1421 1420 1420 1421 1421 1423 1424 1425 1426
1473 1472 1471 1470 1469 1467 1465 1463 1461 1459 1457 1455 1453 1451 1448 1446 1444 1443 1441 1438 1436 1435 1432 1429 1427 1425 1423 1421 1420 1418 1417 1416 1415 1414 1413 1413 1413 1414 1414 1416 1417 1418 1419
1470 1469 1467 1466 1463 1461 1458 1456 1453 1451 1450 1448 1445 1443 1441 1439 1437 1435 1433 1431 1429 1427 1424 1422 1420 1418 1416 1414 1413 1411 1410 1409 1408 1407 1406 1406 1406 1407 1408 1408 1410 1411 1412
1466 1465 1463 1460 1458 1455 1453 1450 1447 1444 1441 1439 1437 1436 1433 1431 1429 1428 1426 1424 1421 1419 1417 1415 1413 1411 1409 1407 1406 1404 1403 1402 1401 1400 1400 1399 1400 1400 1401 1402 1403 1404 1406
1462 1460 1458 1455 1453 1450 1447 1444 1441 1438 1435 1432 1429 1427 1426 1423 1421 1420 1417 1415 1413 1412 1410 1408 1406 1404 1402 1400 1399 1398 1397 1395 1394 1394 1393 1393 1393 1394 1394 1395 1397 1398 1400
1458 1456 1453 1450 1446 1443 1440 1437 1434 1431 1428 1425 1422 1420 1418 1416 1413 1412 1410 1408 1405 1404 1402 1400 1399 1397 1395 1394 1393 1392 1390 1389 1388 1388 1387 1387 1387 1388 1388 1389 1391 1392 1394
1454 1451 1448 1444 1441 1437 1434 1431 1428 1424 1421 1418 1415 1413 1411 1409 1406 1404 1402 1400 1398 1396 1395 1393 1392 1390 1389 1388 1386 1385 1384 1383 1383 1382 1382 1382 1382 1382 1383 1384 1385 1387 1389
1449 1446 1442 1439 1435 1431 1428 1425 1421 1418 1414 1411 1408 1406 1404 1401 1399 1397 1395 1393 1391 1389 1388 1387 1385 1384 1383 1381 1380 1380 1379 1378 1377 1377 1376 1376 1377 1377 1378 1379 1381 1382 1384
1444 1441 1437 1433 1430 1426 1422 1419 1415 1411 1408 1404 1402 1399 1396 1394 1392 1390 1388 1386 1384 1383 1382 1380 1379 1378 1377 1375 1375 1374 1373 1373 1372 1372 1372 1372 1372 1373 1374 1375 1376 1378 1379
1440 1436 1432 1428 1424 1420 1416 1413 1409 1405 1401 1398 1395 1393 1390 1387 1385 1383 1382 1380 1379 1377 1376 1375 1374 1372 1371 1370 1369 1369 1369 1368 1368 1368 1368 1368 1369 1369 1370 1371 1372 1373 1375
1435 1431 1427 1423 1419 1415 1411 1407 1403 1399 1396 1392 1390 1387 1384 1382 1379 1377 1376 1375 1373 1372 1371 1370 1369 1368 1367 1366 1365 1365 1364 1364 1364 1364 1364 1365 1365 1366 1366 1367 1368 1369 1371
1429 1425 1422 1418 1413 1409 1405 1401 1397 1394 1390 1387 1385 1382 1380 1377 1375 1373 1371 1370 1369 1368 1367 1366 1365 1364 1363 1362 1361 1361 1361 1361 1360 1361 1361 1361 1361 1362 1363 1364 1365 1366 1367